Location: Lac Lasalle
(46.0398°N, 74.1576°W)
Time: 07:23:40
(UTC-05:00)

PCSat - Pass Details

Date: 19 December 2019
Orbit: 785 x 794 km, 67.1° (Epoch: 20 January)

Event Time Altitude Azimuth Distance (km) Brightness Sun altitude
Rises 17:47:28 0° 330° (NNW) 3,304 13.0 -15.6°
Reaches altitude 10° 17:53:04 10° 16° (NNE) 2,372 11.7 -16.5°
Maximum altitude 17:53:24 10° 20° (NNE) 2,368 11.7 -16.6°
Enters shadow 17:53:26 10° 20° (NNE) 2,368 11.7 -16.6°
